Black River Falls, WI

2:03 PM CST on February 25, 2017 (GMT -0600)
Black River Falls Area

Weather History for KBCK - January, 2013

Change the Weather History Date:

Friday, January 11, 2013

  Actual Average (KCMY) Record (KCMY)
Temperature  
Mean Temperature 38 °F -  
Max Temperature 44 °F 21 °F 49 °F (1980)
Min Temperature 33 °F 0 °F -35 °F (1979)
Degree Days  
Heating Degree Days 26    
Moisture  
Dew Point 38 °F    
Average Humidity 100    
Maximum Humidity 100    
Minimum Humidity 100    
Precipitation  
Precipitation 0.00 in - - ()
Sea Level Pressure  
Sea Level Pressure 29.61 in    
Wind  
Wind Speed 2 mph (SSE)    
Max Wind Speed 7 mph    
Max Gust Speed -    
Visibility 2 miles    
Events Fog , Rain    
Averages and records for this station are not official NWS values.
T = Trace of Precipitation, MM = Missing Value Source: NWS Daily Summary

Daily Weather History Graph

Daily Weather History Graph

Search for Another Location

Airport or City:

Trip Planner

Search our weather history database for the weather conditions in past years. The results will help you decide how hot, cold, wet, or windy it might be!

Date:

Astronomy

Jan. 11, 2013 Rise Set
Actual Time 7:37 AM CST 4:45 PM CST
Civil Twilight 7:04 AM CST 5:18 PM CST
Nautical Twilight 6:28 AM CST 5:54 PM CST
Astronomical Twilight 5:53 AM CST 6:29 PM CST
Moon 7:08 AM CST (1/11) 5:06 PM CST (1/11)
Length of Visible Light 10h 13m
Length of Day
9h 08m
Waning Crescent, 0% of the Moon is Illuminated
Jan 11
Waning Crescent
Jan 11
New
Jan 18
First Quarter
Jan 26
Full
Feb 3
Last Quarter

Hourly Weather History & Observations

Time (CST) Temp. Windchill Dew Point Humidity Pressure Visibility Wind Dir Wind Speed Gust Speed Precip Events Conditions
12:15 AM 33.8 °F - 33.8 °F 100% 29.80 in 1.8 mi Calm Calm - N/A   Overcast
12:35 AM 33.8 °F - 33.8 °F 100% 29.78 in 2.0 mi Calm Calm - N/A   Overcast
12:55 AM 33.8 °F 29.6 °F 33.8 °F 100% 29.76 in 1.0 mi East 4.6 mph - N/A   Overcast
1:15 AM 33.8 °F 28.6 °F 33.8 °F 100% 29.75 in 1.2 mi ESE 5.8 mph - N/A   Overcast
1:35 AM 33.8 °F - 33.8 °F 100% 29.75 in 1.5 mi Calm Calm - N/A   Overcast
1:55 AM 33.8 °F - 33.8 °F 100% 29.75 in 1.5 mi Calm Calm - N/A   Overcast
2:15 AM 33.8 °F 30.8 °F 33.8 °F 100% 29.76 in 0.8 mi SE 3.5 mph - N/A   Overcast
2:35 AM 33.8 °F 30.8 °F 33.8 °F 100% 29.75 in 0.8 mi ESE 3.5 mph - N/A   Light Drizzle
2:55 AM 33.8 °F - 33.8 °F 100% 29.74 in 0.8 mi Calm Calm - N/A Rain Rain
3:15 AM 33.8 °F - 33.8 °F 100% 29.73 in 1.0 mi Calm Calm - N/A   Drizzle
3:35 AM 33.8 °F - 33.8 °F 100% 29.71 in 1.0 mi Calm Calm - N/A   Light Drizzle
3:55 AM 33.8 °F - 33.8 °F 100% 29.70 in 1.0 mi Calm Calm - N/A   Overcast
4:15 AM 33.8 °F - 33.8 °F 100% 29.69 in 0.8 mi Calm Calm - N/A   Overcast
4:35 AM 33.8 °F - 33.8 °F 100% 29.68 in 0.5 mi Calm Calm - N/A Fog Fog
4:55 AM 33.8 °F 30.8 °F 33.8 °F 100% 29.66 in 0.8 mi East 3.5 mph - N/A   Overcast
5:15 AM 33.8 °F - 33.8 °F 100% 29.66 in 1.0 mi Calm Calm - N/A   Overcast
5:35 AM 33.8 °F - 33.8 °F 100% 29.65 in 0.5 mi Calm Calm - N/A Fog Fog
5:55 AM 33.8 °F - 33.8 °F 100% 29.65 in 0.2 mi Calm Calm - N/A Fog Fog
6:15 AM 33.8 °F - 33.8 °F 100% 29.64 in 0.8 mi Calm Calm - N/A   Overcast
6:35 AM 33.8 °F - 33.8 °F 100% 29.64 in 0.5 mi Calm Calm - N/A Fog Fog
6:55 AM 33.8 °F - 33.8 °F 100% 29.64 in 1.2 mi Calm Calm - N/A   Overcast
7:15 AM 33.8 °F - 33.8 °F 100% 29.64 in 1.8 mi Calm Calm - N/A   Overcast
7:35 AM 33.8 °F - 33.8 °F 100% 29.64 in 1.8 mi Calm Calm - N/A   Overcast
7:55 AM 33.8 °F - 33.8 °F 100% 29.63 in 1.8 mi Calm Calm - N/A   Overcast
8:15 AM 33.8 °F - 33.8 °F 100% 29.64 in 1.8 mi Calm Calm - N/A   Overcast
8:35 AM 35.6 °F - 35.6 °F 100% 29.63 in 1.5 mi Calm Calm - N/A   Overcast
8:55 AM 35.6 °F - 35.6 °F 100% 29.63 in 0.5 mi Calm Calm - N/A Fog Fog
9:15 AM 33.8 °F - 33.8 °F 100% 29.64 in 0.2 mi Calm Calm - N/A Fog Fog
9:35 AM 33.8 °F - 33.8 °F 100% 29.63 in 0.2 mi Calm Calm - N/A Fog Fog
9:55 AM 35.6 °F - 35.6 °F 100% 29.62 in 0.2 mi Calm Calm - N/A Fog Fog
10:15 AM 37.4 °F 34.9 °F 37.4 °F 100% 29.62 in 1.2 mi SSE 3.5 mph - N/A   Overcast
10:55 AM 37.4 °F 34.9 °F 37.4 °F 100% 29.61 in 0.8 mi South 3.5 mph - N/A   Overcast
11:15 AM 37.4 °F 33.8 °F 37.4 °F 100% 29.61 in 1.2 mi SSE 4.6 mph - N/A   Overcast
11:35 AM 37.4 °F 34.9 °F 37.4 °F 100% 29.60 in 0.8 mi SSE 3.5 mph - N/A   Overcast
11:55 AM 37.4 °F 34.9 °F 37.4 °F 100% 29.60 in 0.8 mi SSE 3.5 mph - N/A   Overcast
12:15 PM 39.2 °F 35.0 °F 39.2 °F 100% 29.61 in 1.5 mi SSW 5.8 mph - N/A   Overcast
12:35 PM 39.2 °F 37.0 °F 39.2 °F 100% 29.60 in 1.0 mi South 3.5 mph - N/A   Overcast
12:55 PM 39.2 °F 37.0 °F 39.2 °F 100% 29.60 in 1.0 mi South 3.5 mph - N/A   Overcast
1:15 PM 39.2 °F 35.9 °F 39.2 °F 100% 29.59 in 1.5 mi SSE 4.6 mph - N/A   Overcast
1:55 PM 39.2 °F 35.9 °F 39.2 °F 100% 29.58 in 0.5 mi SSE 4.6 mph - N/A Fog Fog
2:15 PM 39.2 °F 35.9 °F 39.2 °F 100% 29.57 in 1.0 mi SSE 4.6 mph - N/A   Overcast
2:35 PM 39.2 °F 37.0 °F 39.2 °F 100% 29.56 in 2.0 mi SE 3.5 mph - N/A   Overcast
2:55 PM 39.2 °F 37.0 °F 39.2 °F 100% 29.56 in 3.0 mi SSE 3.5 mph - N/A   Overcast
3:15 PM 39.2 °F - 39.2 °F 100% 29.55 in 4.0 mi Calm Calm - N/A   Overcast
3:35 PM 39.2 °F 37.0 °F 39.2 °F 100% 29.56 in 5.0 mi South 3.5 mph - N/A   Overcast
3:55 PM 39.2 °F 35.9 °F 39.2 °F 100% 29.55 in 2.5 mi South 4.6 mph - N/A   Overcast
4:15 PM 39.2 °F 37.0 °F 39.2 °F 100% 29.57 in 2.0 mi South 3.5 mph - N/A   Overcast
4:35 PM 39.2 °F 35.9 °F 39.2 °F 100% 29.57 in 1.0 mi SSE 4.6 mph - N/A   Overcast
4:55 PM 41.0 °F 38.0 °F 41.0 °F 100% 29.55 in 0.8 mi SE 4.6 mph - N/A   Overcast
5:15 PM 41.0 °F 38.0 °F 41.0 °F 100% 29.55 in 1.2 mi SE 4.6 mph - N/A   Overcast
5:35 PM 41.0 °F 39.0 °F 41.0 °F 100% 29.55 in 1.8 mi SSE 3.5 mph - N/A   Overcast
5:55 PM 41.0 °F 39.0 °F 41.0 °F 100% 29.54 in 1.0 mi SE 3.5 mph - N/A   Overcast
6:15 PM 41.0 °F 39.0 °F 41.0 °F 100% 29.53 in 1.2 mi SSE 3.5 mph - N/A   Overcast
6:55 PM 41.0 °F 39.0 °F 41.0 °F 100% 29.54 in 1.5 mi South 3.5 mph - N/A   Overcast
7:15 PM 41.0 °F 38.0 °F 41.0 °F 100% 29.52 in 1.2 mi SSE 4.6 mph - N/A   Overcast
7:35 PM 41.0 °F 38.0 °F 41.0 °F 100% 29.52 in 1.8 mi SSE 4.6 mph - N/A   Overcast
7:55 PM 42.8 °F 41.1 °F 42.8 °F 100% 29.52 in 1.5 mi South 3.5 mph - N/A   Overcast
8:15 PM 42.8 °F 40.1 °F 42.8 °F 100% 29.51 in 1.5 mi SSE 4.6 mph - N/A   Overcast
8:35 PM 42.8 °F 41.1 °F 42.8 °F 100% 29.51 in 1.5 mi SSE 3.5 mph - N/A   Overcast
8:55 PM 42.8 °F 40.1 °F 42.8 °F 100% 29.51 in 1.5 mi South 4.6 mph - N/A   Overcast
9:15 PM 42.8 °F 38.6 °F 42.8 °F 100% 29.51 in 2.5 mi South 6.9 mph - N/A   Mostly Cloudy
9:35 PM 42.8 °F 39.3 °F 42.8 °F 100% 29.48 in 4.0 mi SSE 5.8 mph - N/A   Scattered Clouds
9:55 PM 42.8 °F 41.1 °F 42.8 °F 100% 29.48 in 3.0 mi SSW 3.5 mph - N/A   Scattered Clouds
10:15 PM 42.8 °F 40.1 °F 42.8 °F 100% 29.49 in 4.0 mi SSW 4.6 mph - N/A   Overcast
10:35 PM 44.6 °F 41.4 °F 44.6 °F 100% 29.48 in 4.0 mi South 5.8 mph - N/A   Mostly Cloudy
10:55 PM 42.8 °F 40.1 °F 42.8 °F 100% 29.47 in 5.0 mi South 4.6 mph - N/A   Mostly Cloudy
11:15 PM 42.8 °F 40.1 °F 42.8 °F 100% 29.47 in 5.0 mi South 4.6 mph - N/A   Scattered Clouds
11:35 PM 42.8 °F 40.1 °F 42.8 °F 100% 29.47 in 7.0 mi South 4.6 mph - N/A   Scattered Clouds
11:55 PM 42.8 °F 41.1 °F 42.8 °F 100% 29.46 in 7.0 mi South 3.5 mph - N/A   Clear